AD4WX-13 Weather Reports


time (UTC)temp
C
wind
direction
speed
KPH
gust
KPH
rain 1hr
cm
rain 24hr
cm
rain mn
cm
humidity
%
barometer
mb
20260510055124 12 211 0.0 0.0 0.00 0.00 0.00 91 1011.4
20260510054135 12 211 0.0 0.0 0.00 0.00 0.00 91 1011.3
20260510053126 12 211 0.0 0.0 0.00 0.00 0.00 91 1011.3
20260510052124 12 211 0.0 0.0 0.00 0.00 0.00 91 1011.3
20260510051138 12 211 0.0 0.0 0.00 0.00 0.00 91 1011.2
20260510050105 12 211 0.0 0.0 0.00 0.00 0.00 91 1011.2
20260510044919 12 211 0.0 0.0 0.00 0.00 0.00 91 1011.1
20260510043859 12 211 0.0 0.0 0.00 0.00 0.00 91 1011.0
20260510042843 12 211 0.0 0.0 0.00 0.00 0.00 91 1011.1
20260510041856 13 211 0.0 0.0 0.00 0.00 0.00 91 1011.0
20260510040800 13 211 0.0 0.0 0.00 0.00 0.00 90 1011.2
20260510035750 13 211 0.0 0.0 0.00 0.00 0.00 90 1011.2
20260510034744 13 211 0.0 0.0 0.00 0.00 0.00 90 1011.1
20260510033623 13 211 0.0 0.0 0.00 0.00 0.00 90 1011.2
20260510032554 13 211 0.0 0.0 0.00 0.00 0.00 90 1011.2
20260510031529 13 211 0.0 0.0 0.00 0.00 0.00 90 1011.1
20260510030548 14 211 0.0 0.0 0.00 0.00 0.00 89 1010.9
20260510025547 14 211 0.0 0.0 0.00 0.00 0.00 88 1010.9
20260510024601 15 211 0.0 0.0 0.00 0.00 0.00 88 1010.7
20260510023422 15 211 0.0 0.0 0.00 0.00 0.00 87 1010.7
20260510022442 15 211 0.0 0.0 0.00 0.00 0.00 86 1010.5
20260510021421 15 211 0.0 0.0 0.00 0.00 0.00 85 1010.4
20260510020354 16 211 0.0 0.0 0.00 0.00 0.00 84 1010.2
20260510015209 16 211 0.0 0.0 0.00 0.00 0.00 82 1010.0
20260510014217 16 211 0.0 0.0 0.00 0.00 0.00 81 1009.9
20260510013200 17 211 0.0 0.0 0.00 0.00 0.00 80 1009.8
20260510012144 17 211 0.0 0.0 0.00 0.00 0.00 78 1009.7
20260510011023 18 210 0.0 0.0 0.00 0.00 0.00 77 1009.4
20260510005924 18 211 0.0 0.0 0.00 0.00 0.00 75 1009.4
20260510004939 19 211 0.0 0.0 0.00 0.00 0.00 73 1009.2
20260510004003 20 165 0.0 0.0 0.00 0.00 0.00 71 1009.1
20260510003003 20 165 0.0 0.0 0.00 0.00 0.00 70 1009.0
20260510002024 21 310 0.0 0.0 0.00 0.00 0.00 67 1008.9
20260510001010 22 169 0.0 0.0 0.00 0.00 0.00 64 1008.9
20260509235947 22 169 0.0 0.0 0.00 0.00 0.00 58 1008.9
20260509234955 23 169 0.0 0.0 0.00 0.00 0.00 54 1008.8
20260509233925 24 169 0.0 0.0 0.00 0.00 0.00 52 1008.8
20260509232812 25 169 0.0 1.6 0.00 0.00 0.00 46 1008.6
20260509231815 25 169 0.0 0.0 0.00 0.00 0.00 39 1008.6
20260509230837 26 169 0.0 3.2 0.00 0.00 0.00 40 1008.6
20260509225851 27 243 0.0 0.0 0.00 0.00 0.00 41 1008.4
20260509224859 27 244 0.0 3.2 0.00 0.00 0.00 42 1008.4
20260509223905 27 338 0.0 4.8 0.00 0.00 0.00 41 1008.3
20260509222834 27 157 0.0 1.6 0.00 0.00 0.00 40 1008.4
20260509221819 27 155 0.0 3.2 0.00 0.00 0.00 38 1008.4
20260509220658 27 192 1.6 4.8 0.00 0.00 0.00 37 1008.3
20260509215512 27 155 1.6 8.0 0.00 0.00 0.00 39 1008.4
20260509214451 27 214 0.0 8.0 0.00 0.00 0.00 39 1008.3
20260509213426 27 204 1.6 8.0 0.00 0.00 0.00 39 1008.6
20260509212441 27 92 1.6 8.0 0.00 0.00 0.00 43 1008.4
20260509211253 28 57 0.0 4.8 0.00 0.00 0.00 38 1008.4
20260509210113 28 128 0.0 0.0 0.00 0.00 0.00 37 1008.4
20260509205022 28 146 0.0 8.0 0.00 0.00 0.00 39 1008.4
20260509203949 28 162 1.6 11.3 0.00 0.00 0.00 37 1008.5
20260509202931 28 177 3.2 11.3 0.00 0.00 0.00 38 1008.3
20260509201909 27 227 1.6 9.7 0.00 0.00 0.00 38 1008.5
20260509200842 27 157 1.6 9.7 0.00 0.00 0.00 42 1008.6
20260509195812 27 78 3.2 9.7 0.00 0.00 0.00 44 1008.5
20260509194804 27 191 0.0 8.0 0.00 0.00 0.00 42 1008.7
20260509193803 27 146 1.6 9.7 0.00 0.00 0.00 44 1008.7
20260509192746 28 169 1.6 8.0 0.00 0.00 0.00 42 1008.7
20260509191655 27 185 0.0 8.0 0.00 0.00 0.00 45 1008.8
20260509190706 27 185 1.6 8.0 0.00 0.00 0.00 45 1008.9
20260509185705 26 150 1.6 4.8 0.00 0.00 0.00 49 1009.0
20260509184540 26 61 1.6 8.0 0.00 0.00 0.00 49 1009.0
20260509183519 26 183 1.6 9.7 0.00 0.00 0.00 47 1009.1
20260509182411 25 234 1.6 9.7 0.00 0.00 0.00 51 1009.1
20260509181435 25 310 1.6 9.7 0.00 0.00 0.00 51 1009.2
20260509180452 25 226 1.6 8.0 0.00 0.00 0.00 50 1009.2
20260509175508 25 171 1.6 4.8 0.00 0.00 0.00 53 1009.1
20260509174451 25 119 1.6 6.4 0.00 0.00 0.00 54 1009.1
20260509173435 25 184 0.0 6.4 0.00 0.00 0.00 54 1009.2
20260509172426 24 44 0.0 8.0 0.00 0.00 0.00 57 1009.3
20260509171332 23 310 3.2 11.3 0.00 0.00 0.00 58 1009.3
20260509170259 24 214 3.2 11.3 0.00 0.00 0.00 55 1009.3
20260509165253 24 354 0.0 3.2 0.00 0.00 0.00 57 1009.3
20260509164227 23 354 0.0 6.4 0.00 0.00 0.00 57 1009.3
20260509163043 23 11 1.6 6.4 0.00 0.00 0.00 61 1009.3
20260509162031 23 17 1.6 6.4 0.00 0.00 0.00 57 1009.2
20260509161024 23 24 1.6 9.7 0.00 0.00 0.00 62 1009.2
20260509160034 23 17 1.6 9.7 0.00 0.00 0.00 60 1009.1
20260509155058 23 140 0.0 6.4 0.00 0.00 0.00 61 1009.1
20260509153949 23 174 1.6 9.7 0.00 0.00 0.00 62 1009.1
20260509152920 22 144 1.6 8.0 0.00 0.00 0.00 66 1009.1
20260509151924 22 173 1.6 12.9 0.00 0.00 0.00 66 1009.2
20260509150735 21 171 1.6 12.9 0.00 0.00 0.00 69 1009.2
20260509145757 21 156 1.6 12.9 0.00 0.00 0.00 68 1009.1
20260509144810 21 310 3.2 12.9 0.00 0.00 0.00 71 1009.1
20260509143750 20 206 4.8 12.9 0.00 0.00 0.00 71 1008.9
20260509142740 20 107 3.2 12.9 0.00 0.00 0.00 74 1009.0
20260509141730 19 310 3.2 12.9 0.00 0.00 0.00 76 1008.9
20260509140737 19 225 1.6 11.3 0.00 0.00 0.00 77 1008.8
20260509135718 18 310 3.2 9.7 0.00 0.00 0.00 79 1008.7
20260509134703 18 139 1.6 8.0 0.00 0.00 0.00 80 1008.8
20260509133719 17 175 0.0 4.8 0.00 0.00 0.00 83 1008.9
20260509132647 17 310 3.2 11.3 0.00 0.00 0.00 84 1008.8
20260509131548 16 150 1.6 16.1 0.00 0.00 0.00 86 1008.7
20260509130601 16 310 0.0 16.1 0.00 0.00 0.00 89 1008.9
20260509125537 16 105 0.0 4.8 0.00 0.00 0.00 90 1009.0
20260509124519 15 130 0.0 4.8 0.00 0.00 0.00 90 1008.9
20260509123526 15 134 0.0 1.6 0.00 0.00 0.00 89 1008.9
20260509122453 13 134 0.0 1.6 0.00 0.00 0.00 89 1008.9
20260509121316 12 134 0.0 3.2 0.00 0.00 0.00 89 1008.8
20260509120317 12 310 0.0 3.2 0.00 0.00 0.00 90 1008.7
20260509115254 12 310 0.0 1.6 0.00 0.00 0.00 90 1008.6
20260509114302 11 310 0.0 0.0 0.00 0.00 0.00 90 1008.5
20260509113259 11 310 0.0 0.0 0.00 0.00 0.00 90 1008.2
20260509112323 11 310 0.0 0.0 0.00 0.00 0.00 91 1008.1
20260509111323 10 310 0.0 0.0 0.00 0.00 0.00 91 1008.0
20260509110341 11 310 0.0 0.0 0.00 0.00 0.00 91 1007.7
20260509105317 11 310 0.0 0.0 0.00 0.00 0.00 91 1007.5
20260509104312 11 310 0.0 0.0 0.00 0.00 0.00 91 1007.6
20260509103321 11 310 0.0 1.6 0.00 0.00 0.00 91 1007.5
20260509102249 11 310 0.0 0.0 0.00 0.00 0.00 91 1007.8
20260509101243 11 310 0.0 0.0 0.00 0.00 0.00 91 1007.8
20260509100234 10 310 0.0 0.0 0.00 0.00 0.00 91 1007.9
20260509095246 11 310 0.0 0.0 0.00 0.00 0.00 91 1007.9
20260509094256 11 310 0.0 0.0 0.00 0.00 0.00 91 1007.8
20260509093224 10 310 0.0 0.0 0.00 0.00 0.00 91 1007.8
20260509092216 10 310 0.0 0.0 0.00 0.00 0.00 91 1008.0
20260509091208 11 310 0.0 0.0 0.00 0.00 0.00 91 1007.9
20260509090210 11 310 0.0 0.0 0.00 0.00 0.00 91 1007.9
20260509085229 11 310 0.0 0.0 0.00 0.00 0.00 91 1008.0
20260509084222 11 310 0.0 0.0 0.00 0.00 0.00 91 1007.9
20260509083155 11 310 0.0 0.0 0.00 0.00 0.00 91 1008.1
20260509082216 11 310 0.0 0.0 0.00 0.00 0.00 91 1008.1
20260509081144 11 310 0.0 0.0 0.00 0.00 0.00 91 1007.8
20260509080123 11 310 0.0 0.0 0.00 0.00 0.00 91 1007.7
20260509075100 11 310 0.0 0.0 0.00 0.00 0.00 91 1007.8
20260509074048 11 310 0.0 0.0 0.00 0.00 0.00 91 1008.0
20260509073047 11 310 0.0 0.0 0.00 0.00 0.00 91 1007.8
20260509072024 11 310 0.0 0.0 0.00 0.00 0.00 91 1008.0
20260509071025 11 310 0.0 0.0 0.00 0.00 0.00 91 1008.1
20260509070010 11 310 0.0 0.0 0.00 0.00 0.00 91 1008.3
20260509064910 11 310 0.0 0.0 0.00 0.00 0.00 91 1008.5
20260509063900 11 310 0.0 0.0 0.00 0.00 0.00 90 1008.7
20260509062914 11 310 0.0 0.0 0.00 0.00 0.00 90 1008.9
20260509061915 11 310 0.0 0.0 0.00 0.00 0.00 90 1009.1
20260509060812 11 310 0.0 0.0 0.00 0.00 0.00 90 1009.0
20260509055755 11 310 0.0 0.0 0.00 0.00 0.00 90 1009.3